Weather History for ROMY - January, 2013

Change the Weather History Date:

Wednesday, January 2, 2013

  Actual Average Record
Temperature  
Mean Temperature 68 °F -  
Max Temperature 73 °F 66 °F 73 °F (2007)
Min Temperature 62 °F 60 °F 55 °F (2002)
Cooling Degree Days 2    
Growing Degree Days 18 (Base 50)    
Moisture  
Dew Point 59 °F    
Average Humidity 71    
Maximum Humidity 83    
Minimum Humidity 59    
Precipitation  
Precipitation 0.00 in - - ()
Sea Level Pressure  
Sea Level Pressure 30.12 in    
Wind  
Wind Speed 8 mph ()    
Max Wind Speed 15 mph    
Max Gust Speed -    
Visibility 8.4 miles    
Events Rain    
Averages and records for this station are not official NWS values.
T = Trace of Precipitation, MM = Missing Value Source: Averaged Metar Reports

Daily Weather History Graph

Daily Weather History Graph

Search for Another Location

Airport or City:

Trip Planner

Search our weather history database for the weather conditions in past years. The results will help you decide how hot, cold, wet, or windy it might be!

Date:

Astronomy

Jan. 02, 2013 Rise Set
Actual Time 7:23 AM JST 6:02 PM JST
Civil Twilight 6:58 AM JST 6:26 PM JST
Nautical Twilight 6:30 AM JST 6:55 PM JST
Astronomical Twilight 6:02 AM JST 7:23 PM JST
Moon 10:25 PM JST (1/2) 10:17 AM JST (1/2)
Length of Visible Light 11h 28m
Length of Day
10h 38m
Waning Gibbous, 80% of the Moon is Illuminated
Jan 2
Waning Gibbous
Jan 5
Last Quarter
Jan 12
New
Jan 19
First Quarter
Jan 27
Full

Hourly Weather History & Observations

Time (JST) Temp. Dew Point Humidity Pressure Visibility Wind Dir Wind Speed Gust Speed Precip Events Conditions
12:00 AM 63 °F 52 °F 59% 30.17 in - ENE 8.1 mph - -  
3:00 AM 63 °F 55 °F 69% 30.13 in 16 mi East 8.1 mph - -   Scattered Clouds
6:00 AM 64 °F 58 °F 75% 30.11 in 16 mi East 9.2 mph - -   Scattered Clouds
6:30 AM 62.6 °F 55.4 °F 77% 30.09 in 6.2 mi East 6.9 mph - N/A   Scattered Clouds
7:00 AM 62.6 °F 55.4 °F 77% 30.09 in 6.2 mi East 6.9 mph - N/A   Scattered Clouds
8:00 AM 64.4 °F 57.2 °F 77% 30.12 in 6.2 mi ESE 6.9 mph - N/A   Partly Cloudy
9:00 AM 68 °F 60 °F 68% 30.16 in 12 mi East 8.1 mph - -   Scattered Clouds
9:00 AM 68.0 °F 59.0 °F 73% 30.12 in 6.2 mi East 11.5 mph - N/A   Mostly Cloudy
10:00 AM 69.8 °F 59.0 °F 68% 30.15 in 6.2 mi East 12.7 mph - N/A   Mostly Cloudy
11:00 AM 71.6 °F 59.0 °F 64% 30.15 in 6.2 mi East 13.8 mph - N/A   Mostly Cloudy
12:00 PM 72 °F 61 °F 61% 30.15 in 12 mi East 12.7 mph - -   Scattered Clouds
12:00 PM 71.6 °F 59.0 °F 64% 30.12 in 6.2 mi East 15.0 mph - N/A   Partly Cloudy
1:00 PM 71.6 °F 60.8 °F 69% 30.09 in 6.2 mi East 10.4 mph - N/A   Mostly Cloudy
2:00 PM 73.4 °F 59.0 °F 61% 30.06 in 6.2 mi ESE 13.8 mph - N/A   Scattered Clouds
3:00 PM 72 °F 62 °F 64% 30.10 in 12 mi SE 10.4 mph - -   Partly Cloudy
3:00 PM 71.6 °F 60.8 °F 69% 30.06 in 6.2 mi ESE 10.4 mph - N/A   Mostly Cloudy
4:00 PM 71.6 °F 60.8 °F 69% 30.09 in 6.2 mi East 9.2 mph - N/A   Mostly Cloudy
5:00 PM 69.8 °F 60.8 °F 73% 30.09 in 6.2 mi East 9.2 mph - N/A   Mostly Cloudy
6:00 PM 69 °F 62 °F 74% 30.14 in 12 mi ESE 4.6 mph - - Rain Light Rain Showers
6:00 PM 68.0 °F 60.8 °F 78% 30.12 in 6.2 mi ESE 4.6 mph - N/A Rain Light Rain
7:00 PM 66.2 °F 60.8 °F 83% 30.12 in 6.2 mi East 4.6 mph - N/A   Mostly Cloudy
8:00 PM 66.2 °F 60.8 °F 83% 30.15 in 6.2 mi East 4.6 mph - N/A   Mostly Cloudy
9:00 PM 68 °F 62 °F 76% 30.17 in 12 mi ESE 5.8 mph - -   Partly Cloudy